Flag for Canada Weather past 2 weeks in Norman Wells, Northwest Territories, Canada

27 °F

Light snow. Passing clouds.

Feels Like: 13 °F
Forecast: 18 / 26 °F
Wind: 18 mph from Northwest

Location: Norman Wells

Current Time: Nov 27, 2015 at 9:31:16 AM

Latest Report: Nov 27, 2015 at 9:00 AM

Visibility: 15 mi

Pressure: 30.05 "Hg

Humidity: 86%

Dew point: 23 °F

Location of Norman WellsLocation

Historic Weather in Norman Wells — Graph


Norman Wells temperature yesterday

Maximum temperature yesterday: 19 °F (at 6:00 PM)
Minimum temperature yesterday: 5 °F (at 3:00 AM)
Average temperature yesterday: 13 °F

Past Weeks' High & Low Weather Summary

High25 °F (Nov 27, 8:00 AM)93% (Nov 27, 12:00 AM)30.39 "Hg (Nov 27, 12:00 AM)
Low-22 °F (Nov 19, 10:00 AM)65% (Nov 18, 6:00 PM)29.13 "Hg (Nov 12, 5:00 PM)
Average1 °F81%29.87 "Hg
* Reported Nov 12 8:00 AM — Nov 27 8:00 AM, Norman Wells, Weather by CustomWeather, © 2015

Note: Actual official high and low records may vary slightly from our data, if they occured in-between our weather recording intervals... More about our weather records


Norman Wells weather history for previous 24 hours

Time TempWeatherWind HumidityBarometerVisibility
8:00 AM
Fri, Nov 27
25 °FLight snow. Passing clouds.15 mph93%30.04 "Hg10 mi
7:00 AM23 °FLight snow. Overcast.6 mph86%30.01 "Hg6 mi
6:46 AM21 °FLight snow. Overcast.6 mph93%30.01 "Hg5 mi
6:00 AM21 °FLight snow. Overcast.7 mph93%29.98 "Hg30 mi
4:00 AM21 °FLight snow. Overcast.No wind86%29.93 "Hg10 mi
3:00 AM19 °FPassing clouds.2 mph86%29.88 "Hg30 mi
2:00 AM19 °FMostly cloudy.2 mph86%29.86 "Hg30 mi
1:00 AM18 °FMostly cloudy.5 mph93%29.85 "Hg30 mi
12:00 AM18 °FMostly cloudy.No wind93%29.82 "Hg30 mi
11:00 PM
Thu, Nov 26
18 °FPassing clouds.2 mph86%29.79 "Hg30 mi
10:00 PM18 °FMostly cloudy.5 mph86%29.78 "Hg30 mi
9:00 PM18 °FPartly cloudy.2 mph86%29.77 "Hg30 mi
8:00 PM19 °FPartly cloudy.6 mph79%29.75 "Hg30 mi
7:00 PM19 °FOvercast.6 mph79%29.74 "Hg30 mi
6:00 PM19 °FMostly cloudy.5 mph79%29.75 "Hg30 mi
5:00 PM18 °FOvercast.7 mph79%29.74 "Hg30 mi
4:00 PM16 °FBroken clouds.3 mph86%29.74 "Hg30 mi
3:00 PM14 °FPartly sunny.3 mph85%29.76 "Hg30 mi
2:00 PM16 °FPartly sunny.No wind86%29.75 "Hg30 mi
1:00 PM12 °FBroken clouds.No wind92%29.76 "Hg30 mi
12:00 PM12 °FBroken clouds.No wind92%29.75 "Hg30 mi
11:00 AM14 °FPartly cloudy.3 mph85%29.77 "Hg30 mi
10:00 AM16 °FMostly cloudy.2 mph86%29.79 "Hg30 mi
9:00 AM16 °FPassing clouds.7 mph86%29.80 "Hg30 mi
Weather by CustomWeather, © 2015

See weather overviewHow to use our weather pages